EW0772 Weather Reports


Display with metric or nautical units.
time (UTC)temp
F
wind
direction
speed
MPH
gust
MPH
rain 1hr
in
rain 24hr
in
rain mn
in
humidity
%
barometer
mb
20260507033108 77 74 0.0 2.0 0.00 0.00 0.00 32 1011.9
20260507031559 78 57 0.0 0.0 0.00 0.00 0.00 32 1011.8
20260507030104 78 34 0.0 0.0 0.00 0.00 0.00 31 1011.5
20260507024604 79 36 0.0 0.0 0.00 0.00 0.00 30 1011.3
20260507023057 80 24 0.0 0.0 0.00 0.00 0.00 28 1011.1
20260507021607 81 24 0.0 4.0 0.00 0.00 0.00 27 1010.9
20260507020056 82 340 0.0 0.0 0.00 0.00 0.00 27 1010.7
20260507014556 83 294 0.0 2.0 0.00 0.00 0.00 24 1010.8
20260507013114 84 324 0.0 6.0 0.00 0.00 0.00 23 1010.8
20260507011557 85 309 0.0 7.0 0.00 0.00 0.00 23 1010.7
20260507010055 85 37 0.0 4.0 0.00 0.00 0.00 23 1010.7
20260507004554 85 292 1.0 9.0 0.00 0.00 0.00 23 1010.6
20260507003053 85 17 1.0 9.0 0.00 0.00 0.00 23 1010.6
20260507001608 85 325 0.0 8.0 0.00 0.00 0.00 22 1010.5
20260507000052 85 296 0.0 12.0 0.00 0.00 0.00 22 1010.5
20260506234559 85 316 5.0 15.0 0.00 0.00 0.00 21 1010.5
20260506233052 86 318 3.0 10.0 0.00 0.00 0.00 22 1010.6
20260506231552 85 275 0.0 5.0 0.00 0.00 0.00 21 1010.7
20260506230047 85 294 0.0 4.0 0.00 0.00 0.00 21 1010.7
20260506224600 85 329 0.0 10.0 0.00 0.00 0.00 22 1011.0
20260506223043 85 301 0.0 5.0 0.00 0.00 0.00 22 1011.2
20260506221540 85 300 2.0 12.0 0.00 0.00 0.00 23 1011.5
20260506220045 85 308 0.0 4.0 0.00 0.00 0.00 23 1011.8
20260506214535 84 298 0.0 5.0 0.00 0.00 0.00 24 1012.1
20260506213032 83 321 1.0 13.0 0.00 0.00 0.00 24 1012.3
20260506211531 84 317 0.0 5.0 0.00 0.00 0.00 26 1012.4
20260506210030 84 325 0.0 5.0 0.00 0.00 0.00 25 1012.6
20260506204528 83 294 0.0 5.0 0.00 0.00 0.00 25 1012.8
20260506203027 83 306 0.0 3.0 0.00 0.00 0.00 27 1012.9
20260506201527 83 334 0.0 8.0 0.00 0.00 0.00 26 1013.2
20260506200026 82 269 0.0 0.0 0.00 0.00 0.00 27 1013.3
20260506194533 84 299 0.0 1.0 0.00 0.00 0.00 26 1013.6
20260506193024 82 79 0.0 0.0 0.00 0.00 0.00 29 1013.9
20260506191521 81 73 0.0 0.0 0.00 0.00 0.00 29 1014.1
20260506190020 80 161 0.0 3.0 0.00 0.00 0.00 30 1014.3
20260506184517 78 69 0.0 0.0 0.00 0.00 0.00 31 1014.5
20260506183018 78 81 0.0 0.0 0.00 0.00 0.00 32 1014.7
20260506181516 78 94 0.0 0.0 0.00 0.00 0.00 33 1014.8
20260506180016 78 106 0.0 0.0 0.00 0.00 0.00 31 1014.9
20260506174513 78 94 0.0 3.0 0.00 0.00 0.00 33 1015.0
20260506173012 77 100 0.0 0.0 0.00 0.00 0.00 34 1015.0
20260506171508 75 115 0.0 0.0 0.00 0.00 0.00 35 1015.0
20260506170005 73 150 0.0 2.0 0.00 0.00 0.00 40 1015.0
20260506164501 72 38 0.0 5.0 0.00 0.00 0.00 39 1015.1
20260506163058 71 115 0.0 14.0 0.00 0.00 0.00 41 1015.2
20260506161555 70 105 0.0 10.0 0.00 0.00 0.00 42 1015.1
20260506160109 69 86 3.0 14.0 0.00 0.00 0.00 1015.0
20260506154550 0 0.0 0.0 0.00 0.00 0.00 1015.0
20260506153044 0 0.0 0.0 0.00 0.00 0.00 1014.9
20260506151544 0 0.0 0.0 0.00 0.00 0.00 1014.9
20260506150036 0 0.0 0.0 0.00 0.00 0.00 1015.0
20260506144531 0 0.0 0.0 0.00 0.00 0.00 1014.9
20260506143033 0 0.0 0.0 0.00 0.00 0.00 1014.8
20260506141522 0 0.0 0.0 0.00 0.00 0.00 1014.7
20260506140019 0 0.0 0.0 0.00 0.00 0.00 1014.6
20260506134515 0 0.0 0.0 0.00 0.00 0.00 1014.3
20260506133010 0 0.0 0.0 0.00 0.00 0.00 1014.2
20260506131516 0 0.0 0.0 0.00 0.00 0.00 1014.1
20260506130001 0 0.0 0.0 0.00 0.00 0.00 1013.8
20260506124601 0 0.0 0.0 0.00 0.00 0.00 1013.6
20260506123052 0 0.0 0.0 0.00 0.00 0.00 1013.5
20260506121547 0 0.0 0.0 0.00 0.00 0.00 1013.3
20260506120043 0 0.0 0.0 0.00 0.00 0.00 1013.1
20260506114538 0 0.0 0.0 0.00 0.00 0.00 1013.1
20260506113034 0 0.0 0.0 0.00 0.00 0.00 1013.0
20260506111530 0 0.0 0.0 0.00 0.00 0.00 1013.0
20260506110026 0 0.0 0.0 0.00 0.00 0.00 1012.9
20260506104521 0 0.0 0.0 0.00 0.00 0.00 1012.9
20260506103025 0 0.0 0.0 0.00 0.00 0.00 1012.9
20260506101512 0 0.0 0.0 0.00 0.00 0.00 1012.8
20260506100010 0 0.0 0.0 0.00 0.00 0.00 1012.7
20260506094503 63 126 7.0 23.0 0.00 0.00 0.00 50 1012.8
20260506093058 64 112 12.0 23.0 0.00 0.00 0.00 50 1012.8
20260506091558 64 142 7.0 24.0 0.00 0.00 0.00 50 1012.8
20260506090056 64 115 15.0 27.0 0.00 0.00 0.00 49 1012.8
20260506084553 65 113 12.0 27.0 0.00 0.00 0.00 48 1012.8
20260506083052 65 119 14.0 23.0 0.00 0.00 0.00 48 1012.9
20260506081555 65 142 16.0 27.0 0.00 0.00 0.00 48 1012.8
20260506073043 66 151 16.0 25.0 0.00 0.00 0.00 47 1012.9
20260506071546 66 115 15.0 27.0 0.00 0.00 0.00 46 1012.8
20260506061533 66 140 16.0 26.0 0.00 0.00 0.00 45 1012.1
20260506044524 68 153 10.0 26.0 0.00 0.00 0.00 43 1011.4
20260506043023 68 124 13.0 23.0 0.00 0.00 0.00 42 1011.1
20260506041523 68 121 9.0 24.0 0.00 0.00 0.00 42 1010.8
20260506040022 69 134 15.0 23.0 0.00 0.00 0.00 41 1010.4
20260506034521 69 117 16.0 28.0 0.00 0.00 0.00 40 1010.3